Location: *
(49.3167°N, 15.0000°E)
Time: 12:17:26
(UTC+00:00)

Daily predictions for brighter satellites

Satellite Brightness Start Highest point End
(mag) Time Altitude Azimuth Time Altitude Azimuth Time Altitude Azimuth
Cosmos 2082 Rocket 3.7 19:47:07 10° SE 19:50:55 19° E 19:54:42 10° ENE
USA 276 2.1 19:50:34 10° W 19:53:35 81° N 19:56:39 10° E
H-2A R/B 2.7 19:49:52 10° N 19:54:16 64° WNW 19:58:42 10° SSW
Cosmos 1455 2.9 19:53:38 10° NNW 19:57:22 55° W 20:01:07 10° S
USA 245 3.1 19:53:44 10° SSE 19:57:47 75° ENE 20:01:03 10° N
Cosmos 1536 Rocket 3.6 19:53:52 10° S 19:58:09 65° E 20:02:29 10° NNE
Cosmos 1606 Rocket 4.3 19:58:10 10° N 20:02:13 37° ENE 20:06:15 10° SE
CARTOSAT-1 3.7 19:57:56 10° S 20:02:15 78° WSW 20:06:35 10° NNW
ARIANE 5 R/B 3.7 19:58:33 10° SE 20:02:27 31° ENE 20:06:21 10° N
Cosmos 1741 Rocket 4.1 19:58:53 10° NNW 20:04:15 86° WSW 20:09:35 10° SSE
ATLAS 5 CENTAUR R/B 4.4 19:53:25 10° NW 20:05:20 37° WSW 20:09:28 10° S
SPOT 3 Rocket 3.7 20:06:32 10° S 20:11:44 77° WSW 20:16:59 10° NNW
Cosmos 2074 Rocket 4.1 20:06:13 10° N 20:12:31 89° E 20:18:46 10° S
Ariane Rocket 3.8 20:08:28 10° S 20:13:25 49° W 20:18:23 10° NNW
Cosmos 1726 Rocket 4.0 20:20:49 10° N 20:25:01 48° ENE 20:28:35 14° SSE
Nadezhda 1 Rocket 4.0 20:19:48 10° S 20:25:47 64° E 20:31:48 10° NNE
USA 234 4.1 20:21:48 10° E 20:28:05 51° NNE 20:34:24 10° WNW
ATLAS 2AS CENTAUR R/B 4.2 20:23:04 10° WNW 20:28:46 27° WSW 20:34:12 10° SSW
Cosmos 1892 4.3 20:27:17 13° SE 20:29:24 20° E 20:32:13 10° NE
Meteor 2-1 Rocket 4.2 20:24:37 10° N 20:30:10 77° ENE 20:35:18 12° SSE
SL-16 R/B 3.9 20:29:00 10° NNW 20:33:40 25° NE 20:38:20 10° E
Cosmos 1980 Rocket 2.4 20:28:35 10° NNW 20:34:17 66° ENE 20:39:07 14° SE
Cosmos 1697 Rocket 2.9 20:28:56 10° NNW 20:34:32 70° WSW 20:39:32 13° SSE
Cosmos 2344 4.3 20:28:20 10° NW 20:37:06 90° NE 20:48:13 13° SE
Cosmos 2369 3.8 20:32:00 10° NNW 20:37:46 77° ENE 20:42:35 15° SE
SL-8 R/B 4.5 20:33:36 10° W 20:38:01 37° SSW 20:41:22 16° SSE
Cosmos 1331 Rocket 4.0 20:33:40 10° SSW 20:38:59 85° ESE 20:44:19 10° NNE
Spot 2 Rocket 3.9 20:38:49 10° S 20:43:51 61° WSW 20:48:56 10° NNW
Cosmos 2154 Rocket 4.1 20:37:53 10° NNW 20:44:07 77° W 20:50:11 10° S
COSMOS 2406 3.3 20:38:40 10° SSW 20:44:21 62° ESE 20:50:02 10° NE
X-37B 1.8 20:44:09 10° WSW 20:46:22 21° SSW 20:47:01 19° S
CZ-2C R/B 3.6 20:42:41 10° NNE 20:47:17 79° ESE 20:51:46 10° SSW
ATLAS 5 CENTAUR R/B 2.7 20:48:00 17° SE 20:48:43 18° ESE 20:51:27 10° ENE
SPOT 5 3.4 20:49:45 10° S 20:53:54 45° W 20:58:04 10° NNW
Cosmos 1869 4.5 20:54:01 10° N 20:57:29 29° ENE 20:59:42 17° ESE
Cosmos 2084 Rocket 3.7 20:53:42 10° NW 20:57:30 51° SW 21:00:03 20° SSE
RESURS DK-1 4.3 20:54:40 10° NW 20:57:54 22° WSW 21:01:06 10° SSW
Terra 2.2 20:56:28 14° S 21:00:32 60° W 21:05:16 10° NNW
Cosmos 1833 Rocket 3.1 20:54:58 10° SW 21:00:32 66° WNW 21:06:10 10° NNE
CZ-4B R/B 4.4 20:59:51 10° NW 21:00:49 11° WNW 21:01:47 10° W
ASTEX 1 3.7 20:57:59 10° NNE 21:02:54 53° E 21:06:20 19° SSE
SL-8 Rocket 4.1 20:57:34 10° N 21:03:48 64° ENE 21:08:23 19° SSE
Helios 1A Rocket 4.2 21:01:06 11° SSW 21:04:44 35° W 21:08:33 10° NNW
ERS-1 Rocket 3.8 21:02:33 11° S 21:07:10 44° W 21:11:59 10° NNW
FALCON 9 DEB 3.1 21:04:08 10° WNW 21:07:24 76° NNE 21:09:46 17° ESE
Cosmos 1892 Rocket 3.5 21:04:14 15° S 21:07:49 83° E 21:12:13 10° NNE
Cosmos 1302 Rocket 3.9 21:04:12 10° SSW 21:09:24 78° ESE 21:14:36 10° NNE
Cosmos 2322 Rocket 3.6 21:04:23 10° NNW 21:09:25 31° NE 21:14:27 10° ESE
Cosmos 2058 Rocket 3.0 21:07:58 10° N 21:12:25 86° ENE 21:15:19 22° S
Cosmos 1825 2.9 21:15:03 25° SE 21:16:38 37° E 21:20:06 10° NNE
Cosmos 1408 2.3 21:16:14 23° S 21:18:17 86° E 21:21:45 10° N
Cosmos 1626 Rocket 4.2 21:17:39 23° SE 21:19:46 39° E 21:23:49 10° NNE
Meteor 1-11 4.2 21:15:39 15° S 21:20:25 84° E 21:26:01 10° NNE
Cosmos 2278 3.7 21:14:45 10° NNW 21:20:31 86° ENE 21:24:23 22° SSE
Cosmos 2366 rocket 4.1 21:16:31 10° N 21:22:53 74° E 21:27:20 21° SSE
Cosmos 968 Rocket 3.9 21:17:59 10° NNW 21:23:06 57° WSW 21:26:36 20° S
Cosmos 2333 Rocket 4.3 21:19:42 10° N 21:24:00 21° NE 21:28:19 10° E
Cosmos 2218 Rocket 4.1 21:19:55 10° N 21:26:22 78° E 21:30:50 21° SSE
USA 276 1.8 21:26:22 10° W 21:29:24 86° SSW 21:31:01 25° ESE
SJ 16-02 2.6 21:28:32 10° N 21:32:32 32° ENE 21:35:23 16° ESE
Cosmos 1867 3.9 21:27:59 10° NW 21:33:19 54° WSW 21:36:30 23° S
Cosmos 2082 Rocket 2.3 21:28:34 10° SSW 21:34:18 82° WNW 21:40:02 10° NNE
BREEZE-M DEB (TANK) 4.3 21:20:04 10° SW 21:34:19 58° SSE 21:38:24 10° E
USA 267 3.4 21:29:06 10° ENE 21:35:28 50° SE 21:41:47 10° SSW
ARIANE 5 R/B 3.9 21:35:43 15° SSW 21:38:52 33° W 21:42:54 10° NNW
GP-B 3.3 21:36:20 10° N 21:40:46 69° W 21:43:35 22° SSW
Cosmos 1959 Rocket 4.4 21:35:38 10° N 21:41:46 86° W 21:45:49 23° S
Cosmos 2341 Rocket 4.4 21:36:11 10° NNW 21:42:24 61° W 21:47:01 18° SSW
SAR-Lupe-4 3.7 21:41:09 10° N 21:44:44 70° WNW 21:46:46 24° SSW
Cosmos 2360 Rocket 3.4 21:40:14 10° NNW 21:45:29 36° NE 21:50:16 12° ESE
Spot 4 3.9 21:48:33 27° SSE 21:51:09 73° ENE 21:55:56 10° N
Cosmos 2058 4.5 21:50:01 19° ESE 21:51:21 23° E 21:54:39 10° NE
Cosmos 1606 3.8 21:48:15 10° N 21:51:49 35° ENE 21:53:24 24° ESE
Cosmos 2237 4.5 21:55:26 10° NNW 22:01:09 64° ENE 22:04:53 22° SE
Okean 1-7 Rocket 3.8 21:58:40 24° SSW 22:01:19 71° WNW 22:05:50 10° N
Cosmos 1892 4.0 22:02:06 15° SW 22:04:43 34° WNW 22:08:12 10° N
Cosmos 1758 Rocket 3.6 22:08:36 33° SSE 22:10:24 65° E 22:14:46 10° NNE
USA 234 3.2 22:04:42 12° ESE 22:10:50 89° SSW 22:17:27 10° WNW
Cosmos 2181 Rocket 4.4 22:07:21 17° SSW 22:12:10 61° WNW 22:18:23 10° N
Cosmos 1633 2.3 22:12:09 44° S 22:13:10 87° E 22:16:40 10° N
Cosmos 1980 Rocket 3.8 22:13:24 10° NW 22:17:47 23° WSW 22:20:52 15° SW
Cosmos 1821 Rocket 3.9 22:11:35 10° N 22:17:52 89° WSW 22:21:23 27° S
SL-16 R/B 2.2 22:12:42 10° NNW 22:18:24 76° WSW 22:21:23 29° SSE
Cosmos 1992 Rocket 4.4 22:15:18 15° SW 22:19:33 62° WNW 22:24:47 10° NNE
Cosmos 1812 Rocket 3.7 22:15:47 10° NNW 22:20:14 68° W 22:22:08 33° S
SL-4 R/B 3.2 22:23:23 22° ESE 22:23:23 22° ESE 22:25:15 10° E
Cosmos 2219 Rocket 3.6 22:17:28 10° NNW 22:22:34 33° NE 22:27:39 10° ESE
Cosmos-2242 3.1 22:25:21 10° NNW 22:29:34 67° W 22:31:12 36° SSW
ATLAS 5 CENTAUR R/B 1.9 22:29:22 13° WSW 22:32:39 57° NW 22:36:56 10° NE
Cosmos 1602 Rocket 4.0 22:32:11 27° SW 22:34:21 55° WNW 22:38:37 10° N
ERS-2 2.6 22:33:34 10° NNE 22:37:01 42° E 22:37:40 38° SE
Cosmos 1238 4.2 22:38:02 57° S 22:38:36 88° W 22:42:07 10° N
Nadezhda 3 Rocket 3.9 22:36:22 27° S 22:39:55 88° W 22:46:08 10° N
ALOS 2 2.8 22:39:48 35° SSW 22:41:29 59° W 22:45:50 10° NNW
Cosmos 1354 Rocket 4.4 22:41:44 10° NNW 22:46:51 50° WSW 22:49:06 30° SSW
BREEZE-M DEB (TANK) 4.1 22:46:05 10° W 22:49:51 73° SSW 23:06:12 10° ESE
ADEOS Rocket 3.7 22:45:43 26° S 22:50:11 67° WSW 22:57:57 10° NNW
Cosmos 972 Rocket 4.1 22:46:26 10° NNW 22:51:37 79° ENE 22:54:40 28° SSE
Cosmos 1825 4.4 22:49:40 11° WSW 22:52:07 19° WNW 22:54:53 10° NNW
Cosmos 2322 Rocket 2.4 22:48:15 10° NW 22:53:48 57° WSW 22:56:24 31° S
ISS -1.5 23:01:42 14° ESE 23:01:42 14° ESE 23:02:33 10° E
Cosmos 1953 Rocket 3.5 22:58:43 38° S 23:00:23 80° E 23:04:49 10° NNE
SL-27 R/B 3.7 23:00:48 25° ESE 23:00:54 25° ESE 23:03:40 10° NE
PSLV R/B 3.9 22:56:26 10° NNE 23:01:09 61° E 23:03:01 35° SSE
Cosmos 1777 Rocket 4.3 22:59:33 10° NNW 23:04:42 53° WSW 23:06:53 32° SSW
USA 276 4.5 23:02:19 10° W 23:02:50 13° W 23:02:50 13° W
Cosmos 2333 Rocket 2.3 23:03:24 10° NNW 23:09:13 82° ENE 23:12:52 24° SSE
Cosmos 1825 Rocket 4.0 23:08:17 31° SW 23:10:08 54° WNW 23:14:25 10° N
SJ 16-02 2.4 23:07:07 10° NW 23:11:05 32° WSW 23:12:19 27° SW
CENTAUR R/B 3.7 23:09:34 19° SE 23:11:46 24° ESE 23:16:55 10° ENE
Gbstr 26 Del rocket 3.2 23:11:09 33° SSW 23:12:57 57° SSE 23:18:09 10° ENE
COSMOS 2487 3.2 23:14:00 31° ESE 23:14:00 31° ESE 23:16:46 10° NE
Cosmos 1340 Rocket 2.8 23:13:04 40° SSW 23:14:21 71° WNW 23:18:20 10° N
Cosmos 1898 Rocket 4.4 23:11:17 10° NNW 23:16:16 44° ENE 23:20:27 14° SE
Cosmos 2151 4.1 23:14:58 25° SE 23:16:37 33° E 23:20:30 10° NNE
USA 267 3.5 23:12:10 10° ENE 23:18:41 70° NNW 23:25:10 10° WSW
Meteor 2-3 Rocket 4.0 23:20:57 28° SSE 23:23:44 56° E 23:29:12 10° NNE
Cosmos 1812 3.8 23:21:23 10° N 23:24:59 38° ENE 23:26:43 24° SE
Cosmos 2221 2.6 23:22:22 10° NNW 23:26:43 68° W 23:28:17 38° SSW
Cosmos 1606 4.5 23:24:16 10° NW 23:27:12 21° W 23:28:16 19° WSW
Cosmos 2058 4.0 23:26:08 24° WSW 23:28:00 37° WNW 23:31:55 10° N
Cosmos 1842 Rocket 3.5 23:24:56 10° N 23:29:27 84° W 23:31:14 36° S
Cosmos 2360 Rocket 2.6 23:24:13 10° NW 23:29:38 47° WSW 23:32:00 30° SSW
Cosmos 1934 Rocket 4.3 23:24:01 10° NNW 23:29:54 52° W 23:33:06 27° SSW
Nimbus 7 Rocket 4.4 23:27:11 10° NNE 23:33:08 79° WNW 23:36:36 27° SSW
Cosmos 2333 4.3 23:28:32 10° NNW 23:34:17 68° WSW 23:37:21 28° S
Resurs 1-4 Rocket 3.9 23:30:40 10° NE 23:34:38 21° E 23:38:01 12° SE
Cosmos 1782 3.0 23:31:40 10° N 23:35:39 66° E 23:37:13 34° SSE
SL-19 R/B 4.4 23:37:33 35° SSE 23:39:12 82° ENE 23:43:38 10° NNW
Cosmos 1833 4.3 23:39:57 25° SW 23:43:17 75° WNW 23:48:55 10° NNE
CZ-2D R/B 3.8 23:39:13 10° NE 23:43:19 23° E 23:46:39 13° SE
Cosmos 44 3.1 23:41:21 29° SW 23:43:41 82° NW 23:48:10 10° NE
COSMOS 2455 4.0 23:38:11 10° NNW 23:43:55 42° NE 23:49:37 10° ESE
EP 2 4.5 23:52:19 61° S 23:52:43 73° SE 23:55:42 10° NE
Cosmos 1459 Rocket 4.3 23:47:55 10° N 23:53:55 59° ENE 23:58:33 17° SSE
Cosmos 2237 Rocket 3.4 23:49:05 10° NNW 23:54:28 41° NE 23:59:48 10° ESE
